Location: Hylvaty SDH
(49.9612°N, 16.4057°E)
Time: 20:37:47
(UTC+02:00)

Transit 4A - Pass Details

Date: 15 August 2020
Orbit: 862 x 982 km, 66.8° (Epoch: 28 September)

Event Time Altitude Azimuth Distance (km) Brightness Sun altitude
Rises 13:36:44 0° 304° (NW) 3,595 10.9 53.0°
Reaches altitude 10° 13:40:18 10° 324° (NW) 2,675 10.2 52.9°
Maximum altitude 13:44:14 17° 4° (N) 2,235 9.7 52.7°
Drops below altitude 10° 13:48:13 10° 43° (NE) 2,718 10.1 52.5°
Sets 13:51:52 0° 63° (ENE) 3,679 10.7 52.3°
